QPF
0.00 0.00 0.00 0.00 0.00 0.00 0.00 0.00 0.00 0.00 0.00 0.00 0.00 0.00 0.00 0.00 0.00 0.00 0.00 0.00 0.00 0.00 0.00 0.00 0.01 0.00 0.00 0.00 0.00 0.00 0.00 0.00 0.00 0.01 0.02 0.02 0.03 0.03 0.03 0.02 0.01 0.00 0.00 0.00 0.00 0.01 0.01 0.01 0.01
0.00 0.00 0.00 0.00 0.00 0.00 0.00 0.00 0.00 0.00 0.00 0.00 0.00 0.00 0.00 0.00 0.00 0.00 0.00 0.00 0.00 0.00 0.00 0.00 0.00 0.00 0.00 0.00 0.00 0.00 0.00 0.00 0.00 0.00 0.00 0.00 0.01 0.02 0.02 0.02 0.02 0.02 0.00 0.00 0.00 0.00 0.01 0.01 0.00
0.00 0.00 0.00 0.00 0.00 0.00 0.00 0.00 0.00 0.00 0.00 0.00 0.00 0.00 0.00 0.00 0.00 0.00 0.00 0.00 0.00 0.00 0.00 0.00 0.00 0.00 0.00 0.00 0.00 0.00 0.00 0.00 0.00 0.00 0.00 0.01 0.02 0.03 0.03 0.03 0.05 0.04 0.01 0.00 0.00 0.00 0.00 0.01 0.00
0.00 0.00 0.00 0.00 0.00 0.00 0.00 0.00 0.00 0.00 0.00 0.00 0.00 0.00 0.00 0.00 0.00 0.00 0.00 0.00 0.00 0.00 0.00 0.00 0.00 0.00 0.00 0.00 0.00 0.00 0.00 0.00 0.00 0.00 0.00 0.01 0.02 0.02 0.02 0.02 0.04 0.04 0.02 0.00 0.00 0.01 0.01 0.01 0.00
0.00 0.00 0.00 0.00 0.00 0.00 0.00 0.00 0.00 0.00 0.00 0.00 0.00 0.00 0.00 0.00 0.00 0.00 0.00 0.00 0.00 0.00 0.00 0.00 0.00 0.00 0.00 0.00 0.00 0.00 0.00 0.00 0.00 0.00 0.00 0.01 0.01 0.02 0.01 0.01 0.01 0.01 0.01 0.00 0.01 0.01 0.02 0.02 0.02
0.00 0.00 0.00 0.00 0.00 0.00 0.00 0.00 0.00 0.00 0.00 0.00 0.00 0.00 0.00 0.00 0.00 0.00 0.00 0.00 0.00 0.00 0.00 0.00 0.00 0.00 0.00 0.00 0.00 0.00 0.00 0.00 0.00 0.00 0.00 0.00 0.01 0.01 0.01 0.00 0.01 0.00 0.00 0.00 0.01 0.01 0.02 0.03 0.04
0.00 0.00 0.00 0.00 0.00 0.00 0.00 0.00 0.00 0.00 0.00 0.00 0.00 0.00 0.00 0.00 0.00 0.00 0.00 0.00 0.00 0.00 0.00 0.00 0.00 0.00 0.00 0.00 0.00 0.00 0.00 0.00 0.00 0.00 0.00 0.00 0.00 0.00 0.00 0.00 0.00 0.00 0.00 0.00 0.01 0.01 0.01 0.02 0.03
0.00 0.00 0.00 0.00 0.00 0.00 0.00 0.00 0.00 0.00 0.00 0.00 0.00 0.00 0.00 0.00 0.00 0.00 0.00 0.00 0.00 0.00 0.00 0.00 0.00 0.01 0.01 0.01 0.00 0.01 0.01 0.01 0.00 0.00 0.00 0.00 0.00 0.00 0.00 0.00 0.00 0.00 0.00 0.00 0.00 0.01 0.01 0.02 0.03
0.00 0.00 0.00 0.00 0.00 0.00 0.00 0.00 0.00 0.00 0.00 0.00 0.00 0.00 0.00 0.00 0.00 0.00 0.00 0.01 0.01 0.00 0.00 0.00 0.00 0.00 0.01 0.01 0.00 0.00 0.00 0.00 0.00 0.00 0.00 0.00 0.00 0.00 0.00 0.00 0.00 0.00 0.00 0.00 0.00 0.01 0.01 0.02 0.03
0.00 0.00 0.00 0.00 0.00 0.00 0.00 0.00 0.00 0.00 0.00 0.00 0.00 0.00 0.00 0.00 0.00 0.00 0.00 0.00 0.00 0.00 0.00 0.00 0.00 0.00 0.00 0.00 0.00 0.00 0.00 0.00 0.00 0.00 0.00 0.00 0.00 0.00 0.00 0.00 0.00 0.01 0.02 0.02 0.03 0.03 0.03 0.05 0.03
0.00 0.00 0.00 0.00 0.00 0.00 0.00 0.00 0.00 0.00 0.00 0.00 0.00 0.00 0.00 0.00 0.00 0.00 0.00 0.00 0.00 0.00 0.00 0.00 0.00 0.00 0.00 0.00 0.00 0.00 0.00 0.00 0.00 0.00 0.00 0.00 0.00 0.00 0.00 0.01 0.01 0.04 0.04 0.06 0.09 0.10 0.08 0.09 0.09
0.00 0.00 0.00 0.00 0.00 0.00 0.00 0.00 0.00 0.00 0.00 0.00 0.00 0.00 0.00 0.00 0.00 0.00 0.00 0.00 0.00 0.00 0.00 0.00 0.00 0.00 0.00 0.00 0.00 0.00 0.00 0.00 0.00 0.00 0.00 0.00 0.00 0.01 0.02 0.05 0.02 0.03 0.03 0.03 0.02 0.02 0.03 0.01 0.02
0.00 0.00 0.00 0.00 0.00 0.00 0.00 0.00 0.00 0.00 0.00 0.00 0.00 0.00 0.00 0.00 0.00 0.00 0.00 0.00 0.00 0.00 0.00 0.00 0.00 0.00 0.00 0.00 0.00 0.00 0.00 0.00 0.00 0.00 0.00 0.00 0.01 0.02 0.05 0.07 0.08 0.03 0.01 0.01 0.01 0.01 0.01 0.01 0.01
0.00 0.00 0.00 0.00 0.00 0.00 0.00 0.00 0.00 0.00 0.00 0.00 0.00 0.00 0.00 0.00 0.00 0.00 0.00 0.00 0.00 0.00 0.00 0.00 0.00 0.00 0.00 0.00 0.00 0.00 0.00 0.00 0.00 0.00 0.00 0.00 0.01 0.04 0.08 0.08 0.10 0.08 0.07 0.04 0.05 0.03 0.04 0.02 0.01
0.00 0.00 0.00 0.00 0.00 0.00 0.00 0.00 0.00 0.00 0.00 0.00 0.00 0.00 0.00 0.00 0.00 0.00 0.00 0.00 0.00 0.00 0.00 0.00 0.00 0.00 0.00 0.00 0.00 0.00 0.00 0.00 0.00 0.00 0.00 0.00 0.03 0.09 0.10 0.08 0.08 0.11 0.09 0.10 0.13 0.10 0.07 0.02 0.01
0.00 0.00 0.00 0.00 0.00 0.00 0.00 0.00 0.00 0.00 0.00 0.00 0.00 0.00 0.00 0.00 0.00 0.00 0.00 0.00 0.00 0.00 0.00 0.00 0.00 0.00 0.00 0.00 0.00 0.00 0.00 0.00 0.00 0.00 0.00 0.01 0.05 0.10 0.12 0.08 0.06 0.09 0.09 0.12 0.14 0.11 0.06 0.02 0.00
0.00 0.00 0.00 0.00 0.00 0.00 0.00 0.00 0.00 0.00 0.00 0.00 0.00 0.00 0.00 0.00 0.00 0.00 0.00 0.00 0.01 0.01 0.01 0.01 0.00 0.00 0.00 0.02 0.06 0.06 0.04 0.02 0.01 0.01 0.01 0.02 0.06 0.09 0.13 0.10 0.09 0.06 0.08 0.09 0.06 0.06 0.06 0.02 0.01
0.00 0.00 0.00 0.00 0.00 0.00 0.00 0.00 0.00 0.00 0.00 0.00 0.00 0.00 0.00 0.00 0.00 0.00 0.00 0.01 0.03 0.03 0.02 0.03 0.03 0.04 0.08 0.19 0.26 0.22 0.15 0.10 0.09 0.07 0.06 0.07 0.10 0.11 0.15 0.12 0.10 0.06 0.10 0.11 0.07 0.06 0.06 0.03 0.01
0.00 0.00 0.00 0.00 0.00 0.00 0.00 0.00 0.00 0.00 0.00 0.00 0.00 0.00 0.00 0.01 0.01 0.01 0.02 0.02 0.03 0.04 0.05 0.11 0.20 0.24 0.39 0.43 0.41 0.38 0.33 0.29 0.23 0.17 0.15 0.14 0.13 0.14 0.19 0.12 0.13 0.11 0.12 0.12 0.06 0.05 0.04 0.03 0.01
0.00 0.00 0.00 0.00 0.00 0.00 0.00 0.00 0.00 0.00 0.00 0.00 0.00 0.00 0.01 0.01 0.01 0.02 0.03 0.04 0.05 0.09 0.15 0.24 0.32 0.43 0.54 0.58 0.62 0.64 0.59 0.54 0.48 0.36 0.26 0.21 0.18 0.18 0.18 0.22 0.17 0.16 0.16 0.16 0.14 0.12 0.07 0.04 0.02
0.00 0.00 0.00 0.00 0.00 0.00 0.00 0.00 0.00 0.00 0.00 0.00 0.00 0.00 0.01 0.01 0.01 0.01 0.03 0.05 0.06 0.08 0.12 0.19 0.27 0.37 0.46 0.57 0.68 0.77 0.81 0.76 0.64 0.50 0.36 0.29 0.25 0.21 0.20 0.24 0.24 0.23 0.21 0.21 0.25 0.18 0.14 0.13 0.07
0.00 0.00 0.00 0.00 0.00 0.00 0.00 0.00 0.00 0.00 0.00 0.00 0.00 0.00 0.00 0.01 0.01 0.01 0.01 0.02 0.02 0.02 0.04 0.08 0.16 0.23 0.30 0.38 0.48 0.62 0.75 0.75 0.64 0.51 0.39 0.31 0.26 0.23 0.23 0.24 0.25 0.27 0.25 0.25 0.23 0.15 0.20 0.17 0.13
0.00 0.00 0.00 0.00 0.00 0.00 0.00 0.00 0.00 0.00 0.00 0.00 0.00 0.00 0.00 0.00 0.00 0.01 0.01 0.01 0.01 0.01 0.02 0.03 0.05 0.07 0.08 0.12 0.19 0.31 0.42 0.47 0.45 0.36 0.30 0.28 0.26 0.25 0.24 0.23 0.24 0.25 0.24 0.24 0.21 0.19 0.22 0.19 0.17
0.00 0.00 0.00 0.00 0.00 0.00 0.00 0.00 0.00 0.00 0.00 0.00 0.00 0.00 0.00 0.00 0.00 0.01 0.01 0.02 0.02 0.02 0.01 0.01 0.01 0.01 0.02 0.04 0.11 0.24 0.34 0.38 0.36 0.32 0.27 0.25 0.23 0.22 0.20 0.20 0.16 0.16 0.17 0.19 0.17 0.18 0.21 0.20 0.16
0.00 0.01 0.02 0.00 0.00 0.00 0.00 0.00 0.00 0.00 0.00 0.00 0.00 0.00 0.00 0.00 0.00 0.01 0.01 0.01 0.01 0.01 0.01 0.01 0.01 0.01 0.01 0.02 0.07 0.17 0.28 0.33 0.36 0.35 0.32 0.30 0.27 0.23 0.20 0.16 0.10 0.09 0.09 0.10 0.09 0.11 0.16 0.16 0.15
0.02 0.03 0.06 0.03 0.01 0.01 0.00 0.00 0.00 0.00 0.00 0.00 0.00 0.00 0.00 0.00 0.00 0.00 0.00 0.00 0.00 0.00 0.01 0.01 0.01 0.01 0.01 0.02 0.03 0.08 0.15 0.23 0.29 0.34 0.36 0.34 0.30 0.26 0.22 0.15 0.10 0.07 0.06 0.06 0.05 0.08 0.10 0.10 0.11
0.09 0.09 0.06 0.09 0.05 0.04 0.02 0.01 0.00 0.00 0.00 0.00 0.00 0.00 0.00 0.00 0.00 0.00 0.00 0.01 0.01 0.01 0.01 0.01 0.02 0.02 0.03 0.03 0.02 0.03 0.07 0.12 0.18 0.23 0.27 0.29 0.29 0.25 0.20 0.16 0.11 0.08 0.06 0.04 0.04 0.06 0.05 0.06 0.08
0.05 0.08 0.13 0.17 0.15 0.10 0.05 0.04 0.04 0.02 0.00 0.00 0.00 0.00 0.00 0.00 0.00 0.00 0.00 0.00 0.00 0.01 0.01 0.02 0.03 0.02 0.02 0.02 0.01 0.01 0.03 0.05 0.09 0.12 0.13 0.15 0.15 0.14 0.12 0.10 0.07 0.04 0.03 0.02 0.01 0.02 0.02 0.02 0.03
0.05 0.06 0.11 0.12 0.11 0.10 0.08 0.05 0.03 0.04 0.02 0.01 0.00 0.00 0.00 0.00 0.00 0.00 0.00 0.00 0.00 0.01 0.02 0.03 0.03 0.01 0.00 0.00 0.00 0.00 0.00 0.01 0.02 0.04 0.05 0.05 0.05 0.04 0.03 0.02 0.01 0.01 0.00 0.00 0.00 0.00 0.00 0.01 0.01
0.03 0.05 0.08 0.10 0.09 0.09 0.08 0.07 0.03 0.02 0.02 0.02 0.01 0.00 0.00 0.00 0.00 0.00 0.00 0.00 0.00 0.00 0.01 0.01 0.01 0.01 0.00 0.00 0.00 0.00 0.00 0.00 0.00 0.00 0.00 0.01 0.01 0.01 0.00 0.00 0.00 0.00 0.00 0.00 0.00 0.00 0.00 0.01 0.01
MSLP
1011.10 1011.33 1011.59 1011.79 1011.88 1011.85 1011.69 1011.47 1011.25 1011.10 1011.08 1011.19 1011.42 1011.71 1012.01 1012.23 1012.36 1012.37 1012.32 1012.27 1012.27 1012.40 1012.68 1013.09 1013.59 1014.11 1014.56 1014.89 1015.09 1015.17 1015.19 1015.20 1015.27 1015.44 1015.71 1016.05 1016.41 1016.73 1016.97 1017.10 1017.13 1017.10 1017.05 1017.03 1017.08 1017.21 1017.41 1017.63 1017.84
1011.10 1011.38 1011.65 1011.85 1011.92 1011.85 1011.66 1011.40 1011.13 1010.93 1010.85 1010.90 1011.06 1011.30 1011.55 1011.76 1011.89 1011.95 1011.97 1012.01 1012.13 1012.37 1012.74 1013.23 1013.79 1014.33 1014.79 1015.12 1015.31 1015.39 1015.40 1015.41 1015.48 1015.64 1015.90 1016.22 1016.56 1016.84 1017.05 1017.14 1017.14 1017.09 1017.03 1017.03 1017.10 1017.26 1017.48 1017.72 1017.92
1011.12 1011.42 1011.70 1011.88 1011.92 1011.82 1011.60 1011.31 1011.01 1010.79 1010.67 1010.69 1010.81 1011.01 1011.23 1011.43 1011.57 1011.66 1011.73 1011.84 1012.04 1012.35 1012.80 1013.35 1013.94 1014.51 1014.99 1015.34 1015.54 1015.63 1015.66 1015.68 1015.76 1015.92 1016.16 1016.45 1016.74 1016.98 1017.13 1017.19 1017.17 1017.11 1017.07 1017.09 1017.19 1017.37 1017.60 1017.83 1018.02
1011.17 1011.48 1011.74 1011.88 1011.89 1011.75 1011.51 1011.21 1010.91 1010.69 1010.58 1010.59 1010.70 1010.89 1011.09 1011.28 1011.42 1011.53 1011.63 1011.78 1012.02 1012.38 1012.86 1013.44 1014.06 1014.65 1015.15 1015.52 1015.75 1015.88 1015.93 1015.98 1016.07 1016.22 1016.44 1016.68 1016.92 1017.11 1017.22 1017.25 1017.22 1017.18 1017.16 1017.21 1017.33 1017.53 1017.76 1017.97 1018.13
1011.25 1011.54 1011.76 1011.86 1011.82 1011.66 1011.40 1011.10 1010.83 1010.64 1010.55 1010.59 1010.73 1010.92 1011.13 1011.32 1011.46 1011.57 1011.69 1011.84 1012.09 1012.45 1012.94 1013.51 1014.13 1014.73 1015.24 1015.64 1015.91 1016.07 1016.17 1016.25 1016.35 1016.50 1016.68 1016.89 1017.08 1017.22 1017.30 1017.31 1017.28 1017.26 1017.27 1017.35 1017.50 1017.70 1017.91 1018.10 1018.20
1011.34 1011.59 1011.75 1011.80 1011.71 1011.52 1011.26 1010.98 1010.75 1010.60 1010.58 1010.67 1010.85 1011.07 1011.31 1011.51 1011.66 1011.77 1011.88 1012.02 1012.25 1012.58 1013.03 1013.58 1014.17 1014.75 1015.26 1015.67 1015.98 1016.18 1016.32 1016.43 1016.54 1016.68 1016.84 1017.01 1017.16 1017.26 1017.32 1017.32 1017.31 1017.31 1017.35 1017.46 1017.62 1017.81 1018.00 1018.14 1018.20
1011.41 1011.61 1011.70 1011.68 1011.55 1011.34 1011.08 1010.83 1010.64 1010.56 1010.60 1010.76 1011.00 1011.28 1011.55 1011.78 1011.96 1012.08 1012.18 1012.30 1012.49 1012.77 1013.16 1013.65 1014.18 1014.72 1015.21 1015.62 1015.93 1016.16 1016.33 1016.46 1016.58 1016.72 1016.86 1017.00 1017.12 1017.20 1017.24 1017.25 1017.25 1017.28 1017.34 1017.46 1017.63 1017.80 1017.96 1018.06 1018.06
1011.44 1011.57 1011.59 1011.51 1011.34 1011.10 1010.85 1010.63 1010.49 1010.47 1010.58 1010.80 1011.11 1011.45 1011.78 1012.06 1012.27 1012.41 1012.52 1012.62 1012.77 1013.00 1013.33 1013.73 1014.19 1014.66 1015.10 1015.48 1015.78 1016.01 1016.19 1016.33 1016.46 1016.59 1016.72 1016.85 1016.95 1017.02 1017.06 1017.07 1017.09 1017.13 1017.21 1017.33 1017.48 1017.63 1017.75 1017.81 1017.77
1011.42 1011.47 1011.42 1011.29 1011.07 1010.82 1010.57 1010.38 1010.27 1010.30 1010.46 1010.75 1011.11 1011.52 1011.91 1012.25 1012.52 1012.70 1012.83 1012.94 1013.07 1013.26 1013.51 1013.83 1014.21 1014.59 1014.96 1015.29 1015.55 1015.76 1015.92 1016.06 1016.19 1016.32 1016.45 1016.57 1016.67 1016.74 1016.78 1016.81 1016.84 1016.88 1016.96 1017.06 1017.19 1017.31 1017.40 1017.41 1017.36
1011.35 1011.33 1011.22 1011.03 1010.79 1010.52 1010.27 1010.09 1010.01 1010.06 1010.25 1010.57 1010.98 1011.44 1011.89 1012.30 1012.63 1012.87 1013.05 1013.19 1013.32 1013.49 1013.69 1013.95 1014.24 1014.54 1014.82 1015.07 1015.28 1015.44 1015.58 1015.70 1015.82 1015.95 1016.08 1016.21 1016.33 1016.41 1016.47 1016.50 1016.53 1016.56 1016.62 1016.70 1016.80 1016.88 1016.94 1016.93 1016.86
1011.25 1011.17 1011.01 1010.78 1010.52 1010.24 1009.98 1009.80 1009.72 1009.78 1009.97 1010.30 1010.72 1011.21 1011.71 1012.17 1012.56 1012.88 1013.12 1013.31 1013.48 1013.64 1013.83 1014.04 1014.27 1014.49 1014.70 1014.87 1015.01 1015.12 1015.21 1015.31 1015.42 1015.55 1015.69 1015.84 1015.98 1016.09 1016.16 1016.20 1016.22 1016.24 1016.27 1016.32 1016.37 1016.43 1016.46 1016.44 1016.38
1011.16 1011.03 1010.84 1010.59 1010.31 1010.02 1009.76 1009.56 1009.47 1009.50 1009.67 1009.97 1010.38 1010.86 1011.38 1011.87 1012.32 1012.70 1013.01 1013.26 1013.48 1013.68 1013.87 1014.07 1014.27 1014.44 1014.59 1014.70 1014.78 1014.83 1014.88 1014.95 1015.04 1015.18 1015.34 1015.52 1015.68 1015.82 1015.92 1015.96 1015.98 1015.97 1015.97 1015.97 1015.99 1016.02 1016.03 1016.02 1015.96
1011.12 1010.96 1010.74 1010.48 1010.20 1009.91 1009.64 1009.43 1009.30 1009.29 1009.42 1009.67 1010.03 1010.48 1010.98 1011.48 1011.95 1012.36 1012.73 1013.04 1013.31 1013.55 1013.79 1014.00 1014.20 1014.36 1014.49 1014.56 1014.60 1014.61 1014.62 1014.66 1014.75 1014.89 1015.07 1015.27 1015.47 1015.64 1015.76 1015.82 1015.82 1015.79 1015.75 1015.71 1015.70 1015.70 1015.70 1015.70 1015.66
1011.15 1010.98 1010.76 1010.50 1010.22 1009.93 1009.67 1009.44 1009.28 1009.22 1009.29 1009.47 1009.77 1010.15 1010.60 1011.06 1011.51 1011.93 1012.31 1012.65 1012.96 1013.26 1013.54 1013.80 1014.03 1014.22 1014.35 1014.43 1014.45 1014.45 1014.45 1014.47 1014.55 1014.70 1014.89 1015.12 1015.35 1015.55 1015.69 1015.75 1015.75 1015.70 1015.62 1015.55 1015.50 1015.49 1015.49 1015.50 1015.49
1011.27 1011.09 1010.87 1010.63 1010.36 1010.09 1009.83 1009.60 1009.42 1009.32 1009.33 1009.44 1009.67 1009.97 1010.34 1010.73 1011.13 1011.50 1011.85 1012.18 1012.50 1012.82 1013.14 1013.45 1013.74 1013.98 1014.17 1014.28 1014.33 1014.34 1014.34 1014.36 1014.44 1014.58 1014.79 1015.04 1015.29 1015.51 1015.66 1015.73 1015.73 1015.66 1015.56 1015.46 1015.39 1015.36 1015.36 1015.38 1015.39
1011.46 1011.28 1011.07 1010.84 1010.61 1010.36 1010.11 1009.88 1009.69 1009.58 1009.55 1009.62 1009.77 1010.01 1010.29 1010.58 1010.88 1011.17 1011.44 1011.71 1012.00 1012.31 1012.65 1013.00 1013.35 1013.66 1013.92 1014.09 1014.20 1014.24 1014.27 1014.30 1014.38 1014.52 1014.73 1014.98 1015.24 1015.47 1015.64 1015.71 1015.70 1015.63 1015.51 1015.40 1015.31 1015.27 1015.27 1015.30 1015.33
1011.69 1011.51 1011.32 1011.12 1010.91 1010.68 1010.46 1010.25 1010.08 1009.97 1009.93 1009.97 1010.09 1010.27 1010.47 1010.67 1010.86 1011.03 1011.18 1011.35 1011.56 1011.82 1012.13 1012.50 1012.90 1013.28 1013.61 1013.86 1014.04 1014.14 1014.20 1014.25 1014.33 1014.47 1014.66 1014.91 1015.16 1015.39 1015.56 1015.64 1015.64 1015.56 1015.44 1015.32 1015.22 1015.18 1015.18 1015.22 1015.25
1011.92 1011.76 1011.59 1011.41 1011.23 1011.03 1010.83 1010.65 1010.51 1010.42 1010.41 1010.47 1010.58 1010.73 1010.89 1011.01 1011.09 1011.13 1011.15 1011.19 1011.27 1011.43 1011.69 1012.04 1012.45 1012.87 1013.27 1013.60 1013.85 1014.01 1014.11 1014.18 1014.26 1014.39 1014.56 1014.79 1015.02 1015.24 1015.41 1015.50 1015.50 1015.43 1015.31 1015.19 1015.10 1015.06 1015.06 1015.10 1015.13
1012.13 1012.00 1011.86 1011.71 1011.55 1011.37 1011.19 1011.04 1010.92 1010.88 1010.91 1011.01 1011.17 1011.33 1011.48 1011.56 1011.56 1011.49 1011.38 1011.27 1011.21 1011.25 1011.41 1011.69 1012.08 1012.52 1012.95 1013.34 1013.64 1013.86 1013.99 1014.08 1014.16 1014.27 1014.42 1014.61 1014.82 1015.03 1015.19 1015.28 1015.29 1015.23 1015.13 1015.02 1014.94 1014.90 1014.90 1014.94 1014.97
1012.32 1012.23 1012.13 1012.01 1011.86 1011.70 1011.53 1011.38 1011.29 1011.29 1011.37 1011.54 1011.76 1011.98 1012.15 1012.24 1012.21 1012.06 1011.85 1011.60 1011.40 1011.30 1011.34 1011.53 1011.85 1012.26 1012.70 1013.11 1013.44 1013.69 1013.85 1013.95 1014.02 1014.11 1014.23 1014.39 1014.58 1014.76 1014.91 1015.01 1015.03 1015.00 1014.91 1014.82 1014.75 1014.71 1014.71 1014.75 1014.79
1012.51 1012.47 1012.42 1012.33 1012.20 1012.03 1011.85 1011.69 1011.60 1011.62 1011.75 1011.98 1012.27 1012.58 1012.82 1012.95 1012.94 1012.77 1012.49 1012.15 1011.83 1011.60 1011.51 1011.58 1011.81 1012.15 1012.55 1012.94 1013.28 1013.53 1013.70 1013.80 1013.86 1013.93 1014.02 1014.15 1014.31 1014.47 1014.62 1014.72 1014.76 1014.74 1014.68 1014.60 1014.54 1014.51 1014.51 1014.55 1014.59
1012.71 1012.76 1012.77 1012.71 1012.59 1012.40 1012.18 1011.99 1011.87 1011.88 1012.02 1012.30 1012.67 1013.05 1013.39 1013.60 1013.64 1013.50 1013.21 1012.82 1012.42 1012.09 1011.88 1011.83 1011.95 1012.19 1012.52 1012.86 1013.17 1013.40 1013.56 1013.65 1013.70 1013.75 1013.82 1013.92 1014.06 1014.21 1014.34 1014.44 1014.49 1014.49 1014.44 1014.38 1014.33 1014.30 1014.30 1014.34 1014.38
1012.95 1013.09 1013.18 1013.16 1013.04 1012.83 1012.56 1012.31 1012.13 1012.10 1012.23 1012.52 1012.93 1013.39 1013.81 1014.11 1014.23 1014.16 1013.90 1013.51 1013.08 1012.68 1012.37 1012.22 1012.22 1012.36 1012.60 1012.87 1013.12 1013.32 1013.45 1013.53 1013.56 1013.60 1013.65 1013.74 1013.85 1013.99 1014.11 1014.21 1014.26 1014.26 1014.22 1014.16 1014.10 1014.07 1014.07 1014.10 1014.15
1013.23 1013.48 1013.64 1013.67 1013.57 1013.33 1013.01 1012.68 1012.43 1012.33 1012.41 1012.68 1013.09 1013.59 1014.07 1014.45 1014.67 1014.67 1014.48 1014.13 1013.71 1013.28 1012.92 1012.68 1012.59 1012.63 1012.76 1012.95 1013.13 1013.28 1013.38 1013.44 1013.47 1013.49 1013.54 1013.61 1013.72 1013.84 1013.95 1014.03 1014.07 1014.06 1014.01 1013.94 1013.87 1013.83 1013.82 1013.84 1013.89
1013.53 1013.87 1014.12 1014.20 1014.11 1013.86 1013.50 1013.12 1012.79 1012.61 1012.62 1012.83 1013.22 1013.71 1014.22 1014.65 1014.94 1015.02 1014.90 1014.62 1014.23 1013.81 1013.43 1013.15 1012.98 1012.94 1012.99 1013.09 1013.20 1013.30 1013.37 1013.41 1013.43 1013.45 1013.50 1013.56 1013.66 1013.77 1013.86 1013.92 1013.94 1013.90 1013.83 1013.73 1013.63 1013.56 1013.53 1013.54 1013.58
1013.80 1014.23 1014.54 1014.68 1014.62 1014.38 1014.01 1013.59 1013.21 1012.96 1012.90 1013.05 1013.38 1013.83 1014.32 1014.77 1015.08 1015.22 1015.17 1014.95 1014.62 1014.23 1013.87 1013.56 1013.36 1013.26 1013.24 1013.28 1013.34 1013.39 1013.43 1013.45 1013.47 1013.49 1013.54 1013.61 1013.70 1013.78 1013.86 1013.89 1013.87 1013.79 1013.68 1013.54 1013.41 1013.30 1013.24 1013.22 1013.25
1014.00 1014.47 1014.83 1015.02 1015.01 1014.81 1014.47 1014.06 1013.67 1013.40 1013.29 1013.37 1013.63 1014.02 1014.45 1014.86 1015.17 1015.32 1015.31 1015.14 1014.87 1014.53 1014.20 1013.91 1013.70 1013.58 1013.52 1013.51 1013.53 1013.55 1013.57 1013.58 1013.60 1013.63 1013.68 1013.74 1013.82 1013.89 1013.94 1013.94 1013.87 1013.76 1013.60 1013.41 1013.23 1013.09 1012.98 1012.94 1012.94
1014.09 1014.57 1014.94 1015.17 1015.21 1015.08 1014.81 1014.47 1014.14 1013.89 1013.77 1013.82 1014.02 1014.32 1014.68 1015.01 1015.26 1015.39 1015.38 1015.24 1015.01 1014.73 1014.45 1014.20 1014.01 1013.88 1013.82 1013.79 1013.79 1013.79 1013.79 1013.80 1013.82 1013.85 1013.90 1013.97 1014.04 1014.09 1014.11 1014.08 1013.98 1013.82 1013.61 1013.38 1013.16 1012.97 1012.83 1012.75 1012.72
1014.06 1014.49 1014.84 1015.08 1015.18 1015.14 1014.98 1014.77 1014.55 1014.39 1014.32 1014.38 1014.53 1014.77 1015.03 1015.27 1015.43 1015.50 1015.45 1015.31 1015.11 1014.87 1014.64 1014.44 1014.29 1014.20 1014.14 1014.12 1014.11 1014.11 1014.10 1014.10 1014.12 1014.15 1014.20 1014.26 1014.32 1014.37 1014.36 1014.30 1014.17 1013.98 1013.74 1013.48 1013.23 1013.00 1012.83 1012.71 1012.65
1013.93 1014.27 1014.57 1014.80 1014.94 1015.00 1014.98 1014.92 1014.87 1014.84 1014.88 1014.98 1015.13 1015.32 1015.49 1015.62 1015.69 1015.66 1015.56 1015.40 1015.20 1014.99 1014.81 1014.67 1014.57 1014.52 1014.50 1014.49 1014.49 1014.48 1014.47 1014.47 1014.47 1014.50 1014.54 1014.60 1014.65 1014.67 1014.66 1014.58 1014.44 1014.23 1013.98 1013.71 1013.44 1013.20 1013.00 1012.86 1012.76
Thickness
5817 5823 5828 5827 5825 5831 5824 5832 5836 5833 5839 5848 5849 5845 5840 5834 5827 5816 5831 5837 5833 5827 5820 5811 5808 5806 5804 5802 5801 5799 5797 5794 5790 5787 5785 5783 5782 5779 5777 5775 5773 5771 5769 5767 5765 5762 5760 5758 5756
5824 5826 5823 5825 5823 5816 5819 5834 5832 5837 5844 5846 5845 5841 5839 5834 5836 5833 5834 5834 5832 5827 5821 5815 5809 5806 5804 5802 5800 5799 5797 5794 5791 5787 5784 5782 5781 5779 5778 5775 5773 5771 5769 5767 5765 5764 5761 5759 5757
5825 5826 5822 5825 5819 5818 5820 5832 5833 5840 5845 5843 5838 5840 5837 5833 5832 5835 5838 5836 5833 5828 5822 5815 5809 5806 5803 5801 5799 5797 5796 5793 5790 5786 5783 5781 5779 5778 5776 5775 5773 5770 5769 5767 5765 5763 5761 5760 5758
5824 5821 5823 5819 5815 5825 5832 5835 5838 5836 5839 5841 5838 5834 5837 5837 5838 5840 5838 5836 5832 5828 5824 5815 5808 5805 5802 5800 5797 5795 5794 5792 5790 5787 5783 5781 5779 5777 5775 5774 5772 5770 5768 5766 5765 5763 5761 5759 5758
5823 5821 5814 5814 5818 5830 5837 5841 5841 5835 5833 5837 5838 5830 5828 5836 5841 5840 5836 5834 5831 5829 5824 5815 5807 5804 5801 5798 5796 5794 5793 5791 5789 5786 5783 5780 5778 5776 5774 5773 5771 5770 5768 5766 5765 5764 5762 5760 5758
5818 5819 5808 5810 5819 5828 5836 5840 5839 5834 5833 5836 5835 5830 5827 5834 5835 5835 5835 5832 5832 5828 5824 5814 5806 5803 5800 5797 5795 5793 5792 5790 5788 5785 5783 5780 5777 5775 5773 5771 5770 5768 5767 5765 5764 5763 5762 5760 5758
5814 5812 5809 5815 5818 5823 5832 5840 5835 5833 5830 5837 5841 5830 5825 5827 5833 5833 5831 5829 5829 5826 5822 5815 5809 5803 5798 5796 5793 5791 5790 5788 5786 5784 5782 5779 5776 5774 5772 5771 5769 5767 5766 5765 5763 5762 5761 5760 5758
5820 5813 5809 5814 5814 5822 5833 5836 5840 5837 5833 5843 5841 5831 5825 5825 5831 5830 5826 5823 5822 5821 5819 5815 5811 5806 5801 5797 5792 5789 5788 5786 5784 5782 5780 5778 5776 5774 5772 5770 5769 5767 5765 5764 5763 5762 5761 5760 5758
5814 5802 5803 5813 5816 5824 5832 5831 5836 5843 5837 5835 5839 5839 5842 5832 5829 5823 5817 5815 5814 5815 5815 5813 5809 5805 5802 5799 5794 5789 5786 5784 5783 5781 5779 5777 5779 5779 5775 5773 5769 5766 5765 5764 5763 5761 5760 5760 5759
5805 5797 5809 5820 5823 5826 5830 5832 5836 5831 5828 5826 5829 5832 5833 5827 5822 5817 5812 5810 5809 5809 5810 5810 5807 5803 5800 5799 5794 5793 5790 5786 5784 5785 5781 5779 5780 5777 5777 5772 5768 5766 5765 5764 5763 5761 5760 5759 5764
5804 5801 5811 5816 5823 5826 5828 5831 5837 5832 5826 5832 5830 5827 5826 5823 5819 5816 5813 5811 5809 5807 5807 5806 5803 5800 5799 5796 5794 5793 5791 5787 5784 5782 5779 5778 5777 5776 5774 5774 5771 5768 5767 5767 5765 5764 5764 5764 5764
5797 5803 5807 5814 5820 5822 5824 5829 5830 5831 5838 5844 5843 5834 5827 5823 5819 5817 5813 5811 5809 5806 5805 5804 5801 5797 5794 5794 5792 5790 5789 5786 5785 5781 5778 5778 5775 5774 5774 5771 5773 5771 5770 5768 5769 5767 5766 5765 5764
5788 5797 5805 5812 5817 5819 5821 5824 5826 5830 5838 5838 5837 5831 5827 5824 5821 5819 5815 5811 5808 5804 5803 5802 5799 5796 5792 5789 5788 5788 5788 5787 5783 5780 5777 5775 5775 5772 5771 5769 5768 5769 5771 5769 5767 5767 5766 5765 5764
5790 5794 5800 5807 5812 5815 5812 5819 5821 5828 5835 5829 5827 5825 5826 5824 5821 5816 5812 5807 5805 5803 5802 5802 5798 5795 5791 5787 5785 5784 5784 5782 5782 5779 5777 5773 5772 5771 5768 5766 5765 5766 5766 5767 5767 5766 5763 5763 5764
5785 5782 5790 5799 5805 5809 5810 5807 5816 5827 5826 5821 5821 5821 5821 5820 5817 5813 5810 5807 5806 5804 5802 5799 5796 5793 5789 5786 5784 5783 5782 5781 5779 5777 5774 5771 5769 5767 5764 5764 5763 5763 5763 5762 5760 5760 5760 5761 5761
5773 5771 5771 5789 5796 5801 5796 5795 5817 5821 5816 5813 5814 5815 5813 5812 5812 5811 5810 5807 5805 5802 5799 5797 5795 5791 5788 5785 5782 5782 5781 5779 5777 5775 5772 5768 5766 5764 5761 5762 5762 5761 5761 5760 5759 5758 5758 5760 5759
5758 5758 5766 5775 5787 5791 5790 5794 5809 5812 5810 5807 5806 5806 5805 5803 5804 5806 5808 5805 5803 5799 5796 5793 5792 5790 5787 5783 5780 5778 5776 5774 5771 5770 5768 5766 5763 5761 5758 5758 5757 5757 5758 5759 5759 5759 5756 5756 5755
5750 5758 5763 5766 5774 5777 5777 5786 5798 5801 5798 5797 5798 5799 5797 5796 5796 5800 5803 5803 5800 5796 5793 5790 5788 5786 5784 5780 5775 5772 5769 5766 5763 5761 5760 5759 5758 5756 5754 5754 5754 5754 5754 5753 5753 5752 5751 5752 5751
5753 5754 5756 5762 5766 5767 5766 5771 5779 5784 5786 5784 5784 5786 5785 5785 5791 5794 5795 5795 5794 5791 5788 5786 5783 5782 5778 5773 5768 5763 5759 5757 5753 5750 5748 5748 5750 5751 5749 5750 5749 5749 5749 5749 5750 5749 5749 5748 5750
5740 5740 5746 5751 5757 5759 5756 5758 5762 5765 5765 5766 5766 5768 5772 5774 5777 5780 5782 5783 5784 5783 5782 5781 5779 5778 5775 5771 5767 5761 5756 5750 5746 5741 5739 5739 5741 5743 5744 5744 5743 5744 5744 5743 5743 5742 5743 5746 5746
5733 5735 5739 5741 5746 5750 5747 5747 5752 5754 5755 5754 5752 5753 5757 5762 5766 5770 5772 5772 5774 5773 5774 5774 5773 5772 5770 5768 5764 5758 5752 5746 5740 5738 5737 5737 5736 5737 5737 5739 5739 5738 5738 5738 5738 5738 5737 5736 5741
5722 5735 5735 5732 5728 5733 5740 5730 5752 5751 5746 5742 5740 5740 5740 5744 5750 5754 5758 5760 5761 5763 5765 5764 5763 5761 5760 5758 5756 5751 5746 5741 5742 5740 5740 5740 5737 5734 5733 5732 5734 5734 5733 5733 5734 5738 5736 5733 5733
5724 5727 5724 5722 5721 5722 5731 5723 5745 5747 5740 5735 5730 5727 5727 5730 5733 5735 5738 5742 5746 5749 5751 5750 5749 5748 5747 5746 5744 5741 5740 5739 5738 5737 5735 5735 5734 5731 5729 5727 5728 5729 5729 5730 5730 5731 5731 5731 5729
5719 5714 5712 5713 5711 5701 5720 5719 5727 5746 5739 5731 5722 5716 5716 5718 5720 5721 5723 5726 5728 5732 5734 5736 5735 5734 5734 5733 5732 5730 5729 5729 5729 5729 5728 5727 5726 5724 5723 5721 5722 5723 5725 5725 5725 5726 5727 5727 5727
5707 5695 5683 5685 5691 5700 5724 5713 5724 5721 5719 5714 5707 5704 5705 5706 5707 5708 5710 5713 5716 5718 5721 5723 5723 5722 5722 5721 5720 5720 5720 5720 5720 5720 5719 5717 5714 5712 5711 5712 5714 5717 5718 5719 5720 5720 5721 5722 5721
5696 5692 5672 5668 5683 5701 5699 5697 5719 5709 5706 5700 5695 5693 5693 5693 5694 5695 5698 5701 5704 5707 5709 5710 5710 5710 5710 5710 5709 5710 5711 5711 5710 5710 5709 5707 5704 5700 5700 5703 5705 5708 5711 5712 5713 5714 5715 5716 5715
5681 5678 5682 5664 5664 5665 5684 5694 5694 5693 5690 5688 5684 5680 5677 5679 5680 5681 5684 5687 5690 5693 5696 5698 5699 5699 5698 5699 5699 5699 5699 5698 5697 5697 5697 5695 5693 5692 5692 5694 5696 5699 5701 5703 5704 5706 5707 5709 5709
5684 5677 5658 5645 5634 5638 5661 5670 5674 5677 5677 5675 5670 5666 5665 5667 5669 5670 5673 5674 5677 5680 5684 5686 5688 5688 5689 5689 5689 5688 5687 5686 5685 5684 5684 5684 5683 5683 5684 5685 5687 5689 5691 5693 5695 5698 5701 5701 5702
5667 5663 5656 5646 5640 5634 5638 5656 5670 5671 5670 5664 5659 5656 5655 5658 5660 5662 5664 5666 5668 5670 5671 5674 5676 5678 5678 5679 5678 5677 5677 5676 5675 5674 5673 5673 5673 5674 5675 5676 5677 5679 5682 5685 5687 5691 5692 5692 5694
5666 5661 5653 5634 5633 5634 5634 5646 5654 5656 5656 5653 5647 5645 5645 5648 5651 5652 5654 5656 5658 5658 5660 5661 5663 5665 5667 5669 5669 5668 5667 5667 5667 5665 5665 5665 5665 5666 5667 5668 5670 5673 5676 5679 5681 5683 5685 5685 5686